Regional Weather Roundup
Issued by NWS Bismarck, ND

Home | Current Version | Previous Version | Text Only | Print | Product List | Glossary On
Versions: 1 2 3 4 5 6 7 8 9 10 11 12 13 14 15 16 17 18 19 20 21 22 23 24 25 26 27 28 29 30 31 32 33 34 35 36 37 38 39 40 41 42 43 44 45 46 47 48 49 50
000
ASUS43 KBIS 160210
RWRBIS

NWR BROADCAST TEXT
NATIONAL WEATHER SERVICE BISMARCK ND
800 PM CST FRI DEC 15 2017

NOTE: "FAIR" INDICATES FEW OR NO CLOUDS BELOW 12,000 FEET WITH NO
SIGNIFICANT WEATHER AND/OR OBSTRUCTIONS TO VISIBILITY.


CITY           SKY/WX    TMP DP  RH WIND       PRES   REMARKS
WILLISTON        N/A    N/A N/A N/A MISG      29.59R
MINOT          CLOUDY    44  30  57 W15       29.51R
MINOT AFB      CLOUDY    41  30  65 NW15      29.50R
BISMARCK       CLOUDY    39  26  59 W7        29.56S
DICKINSON      FAIR      36  22  56 W12       29.57R
GARRISON         N/A     41  25  53 NW17      29.53R
HETTINGER ARPT CLOUDY    35  20  54 NW8       29.62R
JAMESTOWN      MOCLDY    32  30  92 S7        29.52F
CARRINGTON     CLOUDY    34  32  93 S6        29.54R
HAZEN          CLOUDY    39  25  56 W12       29.57R
LINTON           N/A     36  23  60 CALM      29.57S
MANDAN         CLOUDY    41  25  52 W14       29.55R
OAKES            N/A     32  32 100 S6        29.56F
RUGBY          CLOUDY    32  30  93 E6        29.51R
STANLEY        CLOUDY    39  34  81 NW10      29.56R
TIOGA          MOCLDY    37  34  87 NW10      29.56R
WATFORD CITY   MOCLDY    39  27  60 W13       29.58R
$$

CITY           SKY/WX    TMP DP  RH WIND       PRES   REMARKS
GRAND FORKS    LGT SNOW  23  21  92 E10       29.63F FOG     WCI  12
GRAND FORKS AF LGT SNOW  23  21  93 SE12      29.61F FOG     WCI  12
DEVILS LAKE    FLURRIES  27  25  92 SE10      29.55R WCI  17
FARGO          LGT SNOW  29  27  92 SE10      29.60F FOG     WCI  20
CANDO          LGT SNOW  27  27 100 SE9       29.56R WCI  17
CAVALIER       LGT SNOW  18  16  93 E9G20     29.65S VSB 1   WCI   6
GRAFTON        CLOUDY    19  19 100 E14       29.67S FOG     WCI   6
GWINNER          N/A     32  30  93 SE3       29.57F
LANGDON        LGT SNOW  21  21 100 E14       29.56F WCI   8
ROLLA          LGT SNOW  27  27 100 SE6       29.53R WCI  20
WALHALLA       LGT SNOW  18  18 100 E12       29.63F WCI   5
$$

CITY           SKY/WX    TMP DP  RH WIND       PRES   REMARKS
ABERDEEN       CLOUDY    36  27  69 S8        29.58F
MOBRIDGE       CLOUDY    39  25  57 W5        29.55S
BUFFALO          N/A     38  21  50 NW13      29.57S
RAPID CITY     CLOUDY    35  16  45 N5        29.67R
GLASGOW        CLOUDY    36  24  62 NW12      29.66R
SIDNEY         CLOUDY    42  23  46 NW12      29.61R
WOLF POINT     CLOUDY    39  23  52 SW3       29.64R
GLENDIVE       CLOUDY    37  22  54 SW5       29.63R
MILES CITY     CLOUDY    42  21  43 W6        29.65S
BAKER          PTCLDY    36  24  62 W12       29.64S
$$

CITY           SKY/WX    TMP DP  RH WIND       PRES   REMARKS
BILLINGS       CLOUDY    45  17  32 W12       29.70R
GREAT FALLS    CLOUDY    43  24  47 W10       29.79R
REGINA         CLOUDY    36  32  87 W14       29.53R
ESTEVAN        LGT RAIN  39  32  75 W13       29.51S
$$





USA.gov is the U.S. government's official web portal to all federal, state and local government web resources and services.